Powrót do katalogu

USA 356

AktywnyMilitariaVLEO
NORAD 59816·PAYLOAD·🇺🇸 United States

Wystrzelony May 22, 2024 z Vandenberg Space Force Base

Loading…

Następne Przeloty (najbliższe 24 godziny)

TLE

NieaktualneSource: Mike McCants

Epoka: Aug 27, 2026, 19:58 UTC

1 59816U 24096C   26239.83230449 0.00000000  00000-0  00000-0 0    08
2 59816  70.0168 131.9292 0004000  35.7647 324.2353 14.96713468    07

Śledź USA 356 w czasie rzeczywistym z AllMySat

Download on the App Store